Regional Weather Roundup
Issued by NWS

Home | Current Version | Previous Version | Text Only | Print | Product List | Glossary On
Versions: 1 2 3 4 5 6 7 8 9 10 11 12 13 14 15 16 17 18 19 20 21 22 23 24 25 26 27
000
ASCA42 TJSJ 041610
RWRPR
PUERTO RICO/U.S. VIRGIN ISLANDS HOURLY WEATHER ROUNDUP
NATIONAL WEATHER SERVICE SAN JUAN PR
1200 PM AST SUN DEC 04 2016

PRZ001>002-007>008-010-041700-
PUERTO RICO

CITY           SKY/WX    TMP DP  RH WIND       PRES   REMARKS
SAN JUAN LMM   PTSUNNY   86  73  66 NE8       29.98F HX  93
AGUADILLA      SUNNY     82  73  74 N5        30.00F
CEIBA          MOSUNNY   84  73  70 E7        30.01F HX  91
$$

VIZ001>002-041700-
U.S. VIRGIN ISLANDS

CITY           SKY/WX    TMP DP  RH WIND       PRES   REMARKS
CHARLOTTE AMA  MOSUNNY   84  75  74 SE10      29.98F HX  92
CHRISTIANSTED  MOSUNNY   84  73  70 SE9       30.00F HX  91
$$

HOURLY WEATHER ROUNDUP FOR THE NEWS MEDIA

CITY           SKY/WX    TMP DP  RH WIND       PRES   REMARKS
ORLANDO        MOSUNNY   78  62  57 SE13      30.11S
NEW YORK       MOSUNNY   44  21  40 NW17G23   30.23F
NEWARK         MOSUNNY   44  23  43 NW14      30.23S
CHICAGO        LGT SNOW  32  28  85 SE6       30.10F WCI  26
HARTFORD       MOSUNNY   39  21  48 NW8       30.16F WCI  33
BOSTON         MOSUNNY   38  21  50 NW13      30.17F WCI  30
DALLAS         CLOUDY    50  47  89 N12       30.06R
PHILADELPHIA   PTSUNNY   46  25  43 N10       30.26S
LOS ANGELES    SUNNY     51  33  50 E6        30.08R
WASHINGTON DC  CLOUDY    42  28  57 N5        30.28F



USA.gov is the U.S. government's official web portal to all federal, state and local government web resources and services.